Hourly Weather Hefei

Today, 7 July, Tuesday

Time Temperature Precipitation Wind Pressure Humidity
00:00 +27°C° 0 mm 2 mps 749 mmHg 93%
01:00 +27°C° 0 mm 2 mps 749 mmHg 91%
02:00 +27°C° 0 mm 2 mps 749 mmHg 90%
03:00 +26°C° 0 mm 2 mps 749 mmHg 89%
04:00 +26°C° 0 mm 1 mps 749 mmHg 88%
05:00 +26°C° 0 mm 1 mps 749 mmHg 88%
06:00 +27°C° 0 mm 1 mps 750 mmHg 84%
07:00 +28°C° 0 mm 1 mps 750 mmHg 81%
08:00 +30°C° 0 mm 1 mps 750 mmHg 78%
09:00 +31°C° 0 mm 1 mps 750 mmHg 75%
10:00 +32°C° 0 mm 1 mps 750 mmHg 71%
11:00 +33°C° 0 mm 1 mps 751 mmHg 68%
12:00 +34°C° 0.1 mm 1 mps 750 mmHg 68%
13:00 +35°C° 0.1 mm 2 mps 750 mmHg 67%
14:00 +35°C° 0.1 mm 3 mps 750 mmHg 67%
15:00 +35°C° 0.5 mm 3 mps 750 mmHg 68%
16:00 +35°C° 0.5 mm 3 mps 750 mmHg 70%
17:00 +34°C° 0.5 mm 2 mps 749 mmHg 71%
18:00 +33°C° 0.4 mm 3 mps 750 mmHg 77%
19:00 +30°C° 0.4 mm 3 mps 750 mmHg 83%
20:00 +29°C° 0.4 mm 4 mps 751 mmHg 89%
21:00 +28°C° 0 mm 3 mps 751 mmHg 89%
22:00 +28°C° 0 mm 2 mps 751 mmHg 89%
23:00 +27°C° 0 mm 2 mps 752 mmHg 89%

Tomorrow, 8 July, Wednesday

Time Temperature Precipitation Wind Pressure Humidity
00:00 +27°C° 0.1 mm 1 mps 751 mmHg 89%
01:00 +26°C° 0.1 mm 1 mps 751 mmHg 90%
02:00 +26°C° 0.1 mm 1 mps 751 mmHg 90%
03:00 +26°C° 0 mm 1 mps 751 mmHg 90%
04:00 +25°C° 0 mm 1 mps 751 mmHg 90%
05:00 +25°C° 0 mm 1 mps 751 mmHg 90%
06:00 +26°C° 0 mm 1 mps 751 mmHg 88%
07:00 +27°C° 0 mm 2 mps 751 mmHg 86%
08:00 +28°C° 0 mm 2 mps 751 mmHg 84%
09:00 +29°C° 0 mm 3 mps 751 mmHg 79%
10:00 +30°C° 0 mm 3 mps 751 mmHg 74%
11:00 +31°C° 0 mm 3 mps 751 mmHg 68%
12:00 +33°C° 0 mm 3 mps 750 mmHg 64%
13:00 +34°C° 0 mm 3 mps 750 mmHg 59%
14:00 +34°C° 0 mm 3 mps 749 mmHg 55%
15:00 +34°C° 0 mm 3 mps 749 mmHg 57%
16:00 +33°C° 0 mm 4 mps 749 mmHg 60%
17:00 +33°C° 0 mm 4 mps 748 mmHg 62%
18:00 +31°C° 0 mm 3 mps 749 mmHg 67%
19:00 +29°C° 0 mm 3 mps 749 mmHg 71%
20:00 +28°C° 0 mm 3 mps 749 mmHg 76%
21:00 +27°C° 0 mm 3 mps 749 mmHg 78%
22:00 +27°C° 0 mm 3 mps 749 mmHg 80%
23:00 +26°C° 0 mm 4 mps 749 mmHg 82%

Day after tomorrow, 9 July, Thursday

Time Temperature Precipitation Wind Pressure Humidity
00:00 +26°C° 0 mm 3 mps 749 mmHg 84%
01:00 +26°C° 0 mm 3 mps 749 mmHg 86%
02:00 +25°C° 0 mm 3 mps 749 mmHg 89%
03:00 +25°C° 0 mm 2 mps 748 mmHg 89%
04:00 +24°C° 0 mm 2 mps 748 mmHg 90%
05:00 +24°C° 0 mm 2 mps 748 mmHg 90%
06:00 +25°C° 0 mm 2 mps 748 mmHg 89%
07:00 +26°C° 0 mm 2 mps 748 mmHg 87%
08:00 +27°C° 0 mm 2 mps 748 mmHg 85%
09:00 +28°C° 0 mm 3 mps 748 mmHg 82%
10:00 +29°C° 0 mm 3 mps 748 mmHg 79%
11:00 +30°C° 0 mm 3 mps 748 mmHg 76%
12:00 +31°C° 0 mm 3 mps 748 mmHg 72%
13:00 +31°C° 0 mm 3 mps 747 mmHg 68%
14:00 +33°C° 0 mm 3 mps 747 mmHg 65%
15:00 +33°C° 0 mm 3 mps 747 mmHg 65%
16:00 +33°C° 0 mm 3 mps 746 mmHg 66%
17:00 +33°C° 0 mm 3 mps 746 mmHg 66%
18:00 +31°C° 0 mm 3 mps 746 mmHg 73%
19:00 +29°C° 0 mm 3 mps 746 mmHg 80%
20:00 +28°C° 0 mm 3 mps 747 mmHg 87%
21:00 +28°C° 0 mm 2 mps 747 mmHg 89%
22:00 +27°C° 0 mm 2 mps 747 mmHg 90%
23:00 +27°C° 0 mm 2 mps 747 mmHg 91%

10 July, Friday

Time Temperature Precipitation Wind Pressure Humidity
00:00 +27°C° 0 mm 2 mps 747 mmHg 92%
01:00 +27°C° 0 mm 2 mps 747 mmHg 92%
02:00 +26°C° 0 mm 3 mps 747 mmHg 92%
03:00 +26°C° 0 mm 2 mps 747 mmHg 93%
04:00 +26°C° 0 mm 2 mps 747 mmHg 94%
05:00 +26°C° 0 mm 2 mps 747 mmHg 95%
06:00 +27°C° 0 mm 2 mps 748 mmHg 93%
07:00 +28°C° 0 mm 2 mps 748 mmHg 90%
08:00 +28°C° 0 mm 3 mps 748 mmHg 88%
09:00 +29°C° 0.1 mm 2 mps 748 mmHg 84%
10:00 +30°C° 0.1 mm 2 mps 748 mmHg 81%
11:00 +31°C° 0.1 mm 2 mps 748 mmHg 77%
12:00 +33°C° 0.3 mm 3 mps 748 mmHg 76%
13:00 +33°C° 0.3 mm 3 mps 747 mmHg 75%
14:00 +33°C° 0.3 mm 3 mps 747 mmHg 74%
15:00 +33°C° 0.4 mm 4 mps 747 mmHg 76%
16:00 +33°C° 0.4 mm 4 mps 747 mmHg 78%
17:00 +32°C° 0.4 mm 4 mps 747 mmHg 80%
18:00 +30°C° 0.1 mm 4 mps 747 mmHg 84%
19:00 +29°C° 0.1 mm 5 mps 747 mmHg 88%
20:00 +28°C° 0.1 mm 5 mps 747 mmHg 92%
21:00 +27°C° 0 mm 4 mps 748 mmHg 92%
22:00 +27°C° 0 mm 4 mps 748 mmHg 93%
23:00 +27°C° 0 mm 3 mps 748 mmHg 93%

11 July, Saturday

Time Temperature Precipitation Wind Pressure Humidity
00:00 +27°C° 0.3 mm 3 mps 748 mmHg 94%
01:00 +27°C° 0.3 mm 3 mps 748 mmHg 95%
02:00 +27°C° 0.3 mm 3 mps 748 mmHg 95%
03:00 +27°C° 1.3 mm 3 mps 748 mmHg 96%
04:00 +26°C° 1.3 mm 2 mps 748 mmHg 96%
05:00 +26°C° 1.3 mm 2 mps 748 mmHg 96%
06:00 +26°C° 1.1 mm 3 mps 748 mmHg 96%
07:00 +27°C° 1.1 mm 3 mps 748 mmHg 95%
08:00 +27°C° 1.1 mm 3 mps 749 mmHg 95%
09:00 +27°C° 1.1 mm 4 mps 749 mmHg 95%
10:00 +27°C° 1.1 mm 4 mps 749 mmHg 94%
11:00 +27°C° 1.1 mm 4 mps 749 mmHg 94%
12:00 +27°C° 1.2 mm 4 mps 749 mmHg 95%
13:00 +27°C° 1.2 mm 5 mps 748 mmHg 95%
14:00 +27°C° 1.2 mm 5 mps 748 mmHg 95%
15:00 +27°C° 1.8 mm 5 mps 748 mmHg 95%
16:00 +27°C° 1.8 mm 5 mps 747 mmHg 96%
17:00 +26°C° 1.8 mm 5 mps 747 mmHg 96%
18:00 +26°C° 1.8 mm 4 mps 748 mmHg 96%
19:00 +26°C° 1.8 mm 4 mps 748 mmHg 96%
20:00 +26°C° 1.8 mm 4 mps 748 mmHg 97%
21:00 +26°C° 0.6 mm 4 mps 748 mmHg 96%
22:00 +26°C° 0.6 mm 5 mps 748 mmHg 96%
23:00 +26°C° 0.6 mm 5 mps 748 mmHg 95%

12 July, Sunday

Time Temperature Precipitation Wind Pressure Humidity
00:00 +26°C° 0.4 mm 5 mps 747 mmHg 95%
01:00 +26°C° 0.4 mm 4 mps 747 mmHg 96%
02:00 +26°C° 0.4 mm 4 mps 747 mmHg 96%
03:00 +26°C° 0.6 mm 4 mps 746 mmHg 95%
04:00 +26°C° 0.6 mm 5 mps 746 mmHg 95%
05:00 +27°C° 0.6 mm 5 mps 746 mmHg 94%
06:00 +27°C° 0.4 mm 5 mps 746 mmHg 93%
07:00 +27°C° 0.4 mm 5 mps 746 mmHg 93%
08:00 +27°C° 0.4 mm 5 mps 746 mmHg 92%
09:00 +28°C° 0.1 mm 5 mps 746 mmHg 90%
10:00 +28°C° 0.1 mm 6 mps 745 mmHg 88%
11:00 +29°C° 0.1 mm 7 mps 745 mmHg 86%
12:00 +29°C° 0.1 mm 7 mps 745 mmHg 85%
13:00 +30°C° 0.1 mm 7 mps 745 mmHg 84%
14:00 +30°C° 0.1 mm 7 mps 744 mmHg 83%
15:00 +30°C° 0.8 mm 6 mps 744 mmHg 84%
16:00 +30°C° 0.8 mm 6 mps 744 mmHg 85%
17:00 +30°C° 0.8 mm 5 mps 744 mmHg 86%
18:00 +30°C° 0.8 mm 5 mps 744 mmHg 88%
19:00 +29°C° 0.8 mm 4 mps 745 mmHg 90%
20:00 +28°C° 0.8 mm 4 mps 745 mmHg 91%
21:00 +27°C° 0.5 mm 4 mps 746 mmHg 92%
22:00 +27°C° 0.5 mm 4 mps 746 mmHg 93%
23:00 +26°C° 0.5 mm 4 mps 746 mmHg 95%
Show more